FLOCK 3P'-1 (43121 NORAD) Tracking and Keplerian Element Data

This shows tracking and keplerian element data for the satellite.

Feedback or suggestion? Click here.




ElementValue
Catalog43121
NameFLOCK 3P'-1
Epoch Orbit12664
Epoch Day114.82398405
Epoch Year2020
RAAN186.4055
Inclination97.4537
Eccentricity0.0008444
Argument of Perigee236.2597
Mean Anonmoly123.7836
Mean Motion15.24456084
Decay Rate2.227E-05
L11 43121U 18004L 20114.82398405 .00002227 00000-0 93609-4 0 9995
L22 43121 97.4537 186.4055 0008444 236.2597 123.7836 15.24456084126649



Live tracking and technical data element details for FLOCK 3P'-1 (NORAD 43121). FLOCK 3P'-1 can be tracked NOW for your location showing map with azimuth and elevation plus other details from your city location.







IsCatalogInMostPopularTable: catalog: 43121, numindb: 662
Update: records affected: 1



GetName: 43121 FLOCK 3P'-1

Hit Count: updated at: Fri, 18 Jul 2025 17:19:58 GMT